N0JVW-13 Weather Reports


time (UTC)temp
C
wind
direction
speed
KPH
gust
KPH
rain 1hr
cm
rain 24hr
cm
rain mn
cm
humidity
%
barometer
mb
20260509061607 13 153 0.0 0.0 0.00 0.00 0.00 1 1008.3
20260509061039 13 154 0.0 1.6 0.00 0.00 0.00 1 1008.3
20260509060516 12 154 0.0 1.6 0.00 0.00 0.00 1 1008.3
20260509060056 12 154 0.0 0.0 0.00 0.00 0.00 1 1008.4
20260509055532 12 154 0.0 0.0 0.00 0.00 0.00 1 1008.3
20260509055008 12 154 0.0 0.0 0.00 0.00 0.00 1 1008.3
20260509054559 12 154 0.0 0.0 0.00 0.00 0.00 1 1008.4
20260509054025 12 154 0.0 0.0 0.00 0.00 0.00 1 1008.3
20260509053501 12 154 0.0 0.0 0.00 0.00 0.00 1 1008.3
20260509053046 12 154 0.0 0.0 0.00 0.00 0.00 1 1008.3
20260509052517 12 128 0.0 0.0 0.00 0.00 0.00 1 1008.3
20260509052059 12 128 0.0 0.0 0.00 0.00 0.00 1 1008.2
20260509051539 12 128 0.0 0.0 0.00 0.00 0.00 1 1008.3
20260509051012 12 128 0.0 0.0 0.00 0.00 0.00 1 1008.3
20260509050556 12 127 0.0 0.0 0.00 0.00 0.00 1 1008.2
20260509050031 12 126 0.0 0.0 0.00 0.00 0.00 3 1008.3
20260509045504 12 126 0.0 0.0 0.00 0.00 0.00 3 1008.3
20260509045046 12 126 0.0 0.0 0.00 0.00 0.00 3 1008.4
20260509044522 12 126 0.0 0.0 0.00 0.00 0.00 5 1008.4
20260509044105 12 126 0.0 0.0 0.00 0.00 0.00 7 1008.5
20260509043539 12 126 0.0 0.0 0.00 0.00 0.00 7 1008.5
20260509043016 13 126 0.0 0.0 0.00 0.00 0.00 7 1008.5
20260509042556 13 126 0.0 0.0 0.00 0.00 0.00 7 1008.5
20260509042033 13 347 0.0 0.0 0.00 0.00 0.00 8 1008.6
20260509041508 13 347 0.0 0.0 0.00 0.00 0.00 9 1008.7
20260509041049 13 347 0.0 0.0 0.00 0.00 0.00 8 1008.7
20260509040523 13 347 0.0 0.0 0.00 0.00 0.00 9 1008.7
20260509040106 13 347 0.0 0.0 0.00 0.00 0.00 10 1008.6
20260509035541 13 347 0.0 0.0 0.00 0.00 0.00 12 1008.6
20260509035017 13 347 0.0 0.0 0.00 0.00 0.00 13 1008.6
20260509034557 13 347 0.0 0.0 0.00 0.00 0.00 15 1008.5
20260509034037 13 347 0.0 0.0 0.00 0.00 0.00 20 1008.6
20260509033509 13 347 0.0 0.0 0.00 0.00 0.00 21 1008.6
20260509033050 13 347 0.0 0.0 0.00 0.00 0.00 22 1008.6
20260509032526 13 347 0.0 0.0 0.00 0.00 0.00 23 1008.7
20260509032002 13 347 0.0 0.0 0.00 0.00 0.00 22 1008.6
20260509031543 13 347 0.0 0.0 0.00 0.00 0.00 23 1008.5
20260509031018 13 347 0.0 0.0 0.00 0.00 0.00 29 1008.5
20260509030558 13 347 0.0 0.0 0.00 0.00 0.00 29 1008.6
20260509030034 13 347 0.0 0.0 0.00 0.00 0.00 32 1008.5
20260509025510 13 347 0.0 0.0 0.00 0.00 0.00 32 1008.4
20260509025053 13 347 0.0 1.6 0.00 0.00 0.00 34 1008.4
20260509024530 13 347 0.0 1.6 0.00 0.00 0.00 30 1008.3
20260509024007 13 347 0.0 0.0 0.00 0.00 0.00 36 1008.2
20260509023546 13 347 0.0 0.0 0.00 0.00 0.00 44 1008.2
20260509023027 13 347 0.0 0.0 0.00 0.00 0.00 49 1008.2
20260509022603 13 347 0.0 0.0 0.00 0.00 0.00 49 1008.2
20260509022038 13 347 0.0 0.0 0.00 0.00 0.00 52 1008.1
20260509021515 14 347 0.0 0.0 0.00 0.00 0.00 53 1008.0
20260509021055 14 347 0.0 0.0 0.00 0.00 0.00 53 1007.9
20260509020530 14 347 0.0 0.0 0.00 0.00 0.00 54 1007.8
20260509020011 14 347 0.0 0.0 0.00 0.00 0.00 57 1007.8
20260509015547 14 347 0.0 0.0 0.00 0.00 0.00 56 1007.7
20260509015026 15 347 0.0 0.0 0.00 0.00 0.00 60 1007.7
20260509014604 15 347 0.0 0.0 0.00 0.00 0.00 61 1007.7
20260509014039 15 347 0.0 0.0 0.00 0.00 0.00 62 1007.6
20260509013516 15 347 0.0 0.0 0.00 0.00 0.00 65 1007.6
20260509013102 15 347 0.0 0.0 0.00 0.00 0.00 66 1007.5
20260509012532 15 347 0.0 0.0 0.00 0.00 0.00 66 1007.4
20260509012005 15 347 0.0 0.0 0.00 0.00 0.00 67 1007.2
20260509011545 15 347 0.0 0.0 0.00 0.00 0.00 69 1007.1
20260509011021 15 347 0.0 0.0 0.00 0.00 0.00 69 1007.1
20260509010606 16 347 0.0 0.0 0.00 0.00 0.00 69 1007.0
20260509010043 16 347 0.0 0.0 0.00 0.00 0.00 70 1006.9
20260509005520 16 347 0.0 0.0 0.00 0.00 0.00 71 1006.8
20260509005059 16 347 0.0 0.0 0.00 0.00 0.00 71 1006.8
20260509004536 16 347 0.0 0.0 0.00 0.00 0.00 72 1006.5
20260509004011 16 347 0.0 0.0 0.00 0.00 0.00 72 1006.6
20260509003552 16 347 0.0 0.0 0.00 0.00 0.00 72 1006.6
20260509003028 16 347 0.0 1.6 0.00 0.00 0.00 72 1006.6
20260509002504 16 347 0.0 1.6 0.00 0.00 0.00 72 1006.6
20260509002045 16 347 0.0 3.2 0.00 0.00 0.00 72 1006.7
20260509001520 16 347 1.6 3.2 0.00 0.00 0.00 72 1006.7
20260509001103 16 11 0.0 4.8 0.00 0.00 0.00 72 1006.7
20260509000537 16 4 0.0 4.8 0.00 0.00 0.00 72 1006.7
20260509000013 16 159 0.0 1.6 0.00 0.00 0.00 72 1006.7
20260508235553 16 159 0.0 0.0 0.00 0.00 0.00 72 1006.5
20260508235029 16 159 0.0 1.6 0.00 0.00 0.00 72 1006.4
20260508234505 16 159 0.0 1.6 0.00 0.00 0.00 73 1006.2
20260508234048 16 159 0.0 0.0 0.00 0.00 0.00 72 1006.1
20260508233521 16 159 0.0 0.0 0.00 0.00 0.00 72 1006.0
20260508233128 16 159 0.0 0.0 0.00 0.00 0.00 72 1006.0
20260508232537 16 159 0.0 0.0 0.00 0.00 0.00 71 1006.2
20260508232013 16 159 0.0 0.0 0.00 0.00 0.00 71 1006.3
20260508231554 16 39 0.0 0.0 0.00 0.00 0.00 71 1006.3
20260508231033 16 3 0.0 0.0 0.00 0.00 0.00 69 1006.3
20260508230505 16 3 0.0 1.6 0.00 0.00 0.00 69 1006.4
20260508230048 16 3 0.0 1.6 0.00 0.00 0.00 67 1006.4
20260508225522 16 3 0.0 3.2 0.00 0.00 0.00 67 1006.4
20260508225103 16 3 0.0 4.8 0.00 0.00 0.00 68 1006.4
20260508224538 16 359 1.6 4.8 0.00 0.00 0.00 67 1006.6
20260508224013 16 347 0.0 6.4 0.00 0.00 0.00 67 1006.8
20260508223558 16 345 3.2 8.0 0.00 0.00 0.00 69 1006.9
20260508223032 16 358 0.0 11.3 0.00 0.00 0.00 66 1006.9
20260508222507 16 34 6.4 11.3 0.00 0.00 0.00 70 1007.0
20260508222048 16 10 1.6 9.7 0.00 0.00 0.00 70 1006.9
20260508221524 16 23 3.2 9.7 0.00 0.00 0.00 72 1007.0
20260508221002 16 354 1.6 14.5 0.00 0.00 0.00 70 1006.9
20260508220542 16 335 4.8 14.5 0.00 0.00 0.00 71 1006.9
20260508220024 16 2 3.2 9.7 0.00 0.00 0.00 73 1007.0
20260508215558 17 23 1.6 6.4 0.00 0.00 0.00 75 1007.1
20260508215034 17 342 1.6 8.0 0.00 0.00 0.00 75 1007.1
20260508214523 17 354 0.0 8.0 0.00 0.00 0.00 75 1007.2
20260508214050 17 9 0.0 3.2 0.00 0.00 0.00 75 1007.2
20260508213526 18 24 0.0 4.8 0.00 0.00 0.00 75 1007.3
20260508213002 18 24 0.0 4.8 0.00 0.00 0.00 74 1007.3
20260508212543 18 5 0.0 3.2 0.00 0.00 0.00 74 1007.5
20260508212018 18 337 0.0 3.2 0.00 0.00 0.00 72 1007.5
20260508211600 18 339 0.0 3.2 0.00 0.00 0.00 72 1007.6
20260508211039 18 339 0.0 1.6 0.00 0.00 0.00 72 1007.7
20260508210513 18 30 0.0 1.6 0.00 0.00 0.00 72 1007.6
20260508210055 18 30 0.0 6.4 0.00 0.00 0.00 72 1007.3
20260508205529 19 30 3.2 6.4 0.00 0.00 0.00 71 1007.0
20260508205005 19 8 0.0 3.2 0.00 0.00 0.00 72 1007.2
20260508204552 19 8 0.0 6.4 0.00 0.00 0.00 72 1007.4
20260508204021 19 152 0.0 1.6 0.00 0.00 0.00 72 1007.5
20260508203603 18 152 0.0 1.6 0.00 0.00 0.00 74 1007.7
20260508203040 18 152 0.0 0.0 0.00 0.00 0.00 74 1008.1
20260508202514 18 152 0.0 0.0 0.00 0.00 0.00 74 1007.9
20260508202059 18 152 0.0 0.0 0.00 0.00 0.00 74 1007.6
20260508201536 18 152 0.0 0.0 0.00 0.00 0.00 74 1007.8
20260508201013 18 152 0.0 0.0 0.00 0.00 0.00 73 1007.8
20260508200551 18 152 0.0 0.0 0.00 0.00 0.00 73 1007.6
20260508200026 18 152 0.0 0.0 0.00 0.00 0.00 72 1007.4
20260508195605 18 152 0.0 0.0 0.00 0.00 0.00 73 1007.4
20260508195041 18 152 0.0 0.0 0.00 0.00 0.00 73 1007.7
20260508194528 18 152 0.0 0.0 0.00 0.00 0.00 74 1007.9
20260508194057 18 152 0.0 0.0 0.00 0.00 0.00 74 1007.9
20260508193534 18 152 0.0 0.0 0.00 0.00 0.00 74 1008.1
20260508193010 18 105 0.0 0.0 0.00 0.00 0.00 73 1008.1
20260508192551 18 105 0.0 0.0 0.00 0.00 0.00 74 1008.0
20260508192027 18 105 0.0 0.0 0.00 0.00 0.00 72 1007.7
20260508191503 18 105 0.0 0.0 0.00 0.00 0.00 71 1007.9
20260508191042 18 105 0.0 0.0 0.00 0.00 0.00 71 1008.1
20260508190519 18 105 0.0 0.0 0.00 0.00 0.00 70 1008.2
20260508190059 18 105 0.0 0.0 0.00 0.00 0.00 69 1008.3
20260508185535 18 105 0.0 0.0 0.00 0.00 0.00 72 1008.4
20260508185017 18 105 0.0 0.0 0.00 0.00 0.00 72 1008.3
20260508184604 18 105 0.0 3.2 0.00 0.00 0.00 71 1008.3
20260508184028 18 105 0.0 3.2 0.00 0.00 0.00 70 1008.4
20260508183508 18 254 0.0 0.0 0.00 0.00 0.00 70 1008.5
20260508183106 18 259 0.0 1.6 0.00 0.00 0.00 71 1008.5
20260508182523 18 259 0.0 1.6 0.00 0.00 0.00 70 1008.6
20260508182102 18 226 0.0 1.6 0.00 0.00 0.00 71 1008.7
20260508181546 18 162 0.0 1.6 0.00 0.00 0.00 73 1008.7
20260508181017 18 133 0.0 4.8 0.00 0.00 0.00 72 1008.7
20260508180554 18 133 0.0 4.8 0.00 0.00 0.00 71 1008.7
20260508180033 17 216 0.0 3.2 0.00 0.00 0.00 72 1008.9
20260508175504 17 133 0.0 3.2 0.00 0.00 0.00 73 1008.9
20260508175045 17 133 0.0 3.2 0.00 0.00 0.00 74 1008.7
20260508174521 17 163 0.0 4.8 0.00 0.00 0.00 73 1008.3
20260508174101 17 160 0.0 3.2 0.00 0.00 0.00 74 1008.4
20260508173536 17 160 0.0 3.2 0.00 0.00 0.00 73 1008.5
20260508173016 17 165 0.0 3.2 0.00 0.00 0.00 73 1008.7
20260508172555 17 165 0.0 4.8 0.00 0.00 0.00 72 1008.9
20260508172029 17 167 0.0 3.2 0.00 0.00 0.00 73 1009.0
20260508171506 17 139 0.0 0.0 0.00 0.00 0.00 73 1009.2
20260508171046 17 139 0.0 1.6 0.00 0.00 0.00 72 1009.2
20260508170522 17 139 0.0 1.6 0.00 0.00 0.00 73 1009.1
20260508165538 17 172 0.0 0.0 0.00 0.00 0.00 71 1009.4
20260508165014 17 172 0.0 3.2 0.00 0.00 0.00 70 1009.6
20260508164559 17 172 0.0 3.2 0.00 0.00 0.00 70 1009.4
20260508164031 17 153 0.0 3.2 0.00 0.00 0.00 70 1009.3
20260508163508 17 170 0.0 3.2 0.00 0.00 0.00 70 1009.2
20260508163048 17 198 0.0 3.2 0.00 0.00 0.00 70 1009.2
20260508162525 17 144 0.0 4.8 0.00 0.00 0.00 72 1009.2
20260508162003 17 160 0.0 4.8 0.00 0.00 0.00 71 1009.0
20260508161542 17 143 0.0 4.8 0.00 0.00 0.00 70 1009.1
20260508161018 17 163 0.0 1.6 0.00 0.00 0.00 71 1009.2
20260508160559 17 149 0.0 1.6 0.00 0.00 0.00 71 1009.3
20260508160036 17 139 0.0 0.0 0.00 0.00 0.00 71 1009.3
20260508155511 17 162 0.0 3.2 0.00 0.00 0.00 70 1009.2
20260508155055 17 162 0.0 4.8 0.00 0.00 0.00 70 1009.3
20260508154542 17 149 0.0 4.8 0.00 0.00 0.00 71 1009.5
20260508154003 17 150 0.0 3.2 0.00 0.00 0.00 70 1009.5
20260508153545 16 155 0.0 3.2 0.00 0.00 0.00 71 1009.5
20260508153020 16 281 0.0 3.2 0.00 0.00 0.00 72 1009.6
20260508152600 16 281 0.0 3.2 0.00 0.00 0.00 70 1009.6
20260508152036 16 148 0.0 4.8 0.00 0.00 0.00 74 1009.7
20260508151515 15 148 0.0 4.8 0.00 0.00 0.00 73 1009.7
20260508151054 15 155 0.0 1.6 0.00 0.00 0.00 73 1009.8
20260508150531 15 155 0.0 1.6 0.00 0.00 0.00 74 1009.8
20260508150006 15 155 0.0 0.0 0.00 0.00 0.00 74 1009.8
20260508145547 15 155 0.0 0.0 0.00 0.00 0.00 74 1009.9
20260508145023 15 155 0.0 1.6 0.00 0.00 0.00 74 1009.8
20260508144610 15 155 0.0 1.6 0.00 0.00 0.00 73 1009.8
20260508144040 15 155 0.0 1.6 0.00 0.00 0.00 73 1009.7
20260508143517 15 136 0.0 4.8 0.00 0.00 0.00 73 1009.6
20260508143105 15 136 0.0 6.4 0.00 0.00 0.00 73 1009.6
20260508142534 15 156 1.6 6.4 0.00 0.00 0.00 73 1009.6
20260508142010 15 160 0.0 4.8 0.00 0.00 0.00 74 1009.7
20260508141558 14 160 0.0 4.8 0.00 0.00 0.00 74 1009.6
20260508141028 14 155 0.0 3.2 0.00 0.00 0.00 74 1009.7
20260508140505 14 155 0.0 4.8 0.00 0.00 0.00 74 1009.7
20260508140045 14 158 0.0 4.8 0.00 0.00 0.00 73 1009.7
20260508135521 14 160 0.0 3.2 0.00 0.00 0.00 73 1009.8
20260508135101 14 155 0.0 1.6 0.00 0.00 0.00 73 1009.8
20260508134553 14 163 0.0 1.6 0.00 0.00 0.00 74 1009.8
20260508134014 14 162 0.0 0.0 0.00 0.00 0.00 74 1009.9
20260508133555 14 162 0.0 0.0 0.00 0.00 0.00 74 1010.0
20260508133045 14 162 0.0 1.6 0.00 0.00 0.00 74 1010.0
20260508132506 14 162 0.0 1.6 0.00 0.00 0.00 74 1009.8
20260508132047 14 156 0.0 0.0 0.00 0.00 0.00 74 1010.0
20260508131523 14 156 0.0 1.6 0.00 0.00 0.00 74 1010.0
20260508131105 14 156 0.0 1.6 0.00 0.00 0.00 74 1010.0
20260508130540 13 156 0.0 1.6 0.00 0.00 0.00 74 1010.0
20260508130016 13 96 0.0 1.6 0.00 0.00 0.00 74 1010.0
20260508125556 13 96 0.0 1.6 0.00 0.00 0.00 73 1010.0
20260508125034 13 95 0.0 1.6 0.00 0.00 0.00 74 1010.0
20260508124512 13 158 0.0 0.0 0.00 0.00 0.00 74 1010.0
20260508124050 13 158 0.0 1.6 0.00 0.00 0.00 74 1009.8
20260508123526 13 158 0.0 1.6 0.00 0.00 0.00 74 1009.7
20260508123002 13 141 0.0 6.4 0.00 0.00 0.00 74 1009.5
20260508122543 13 141 0.0 6.4 0.00 0.00 0.00 74 1009.4
20260508122018 13 152 0.0 3.2 0.00 0.00 0.00 75 1009.6
20260508121559 13 158 0.0 1.6 0.00 0.00 0.00 74 1009.5
20260508121035 13 158 0.0 1.6 0.00 0.00 0.00 75 1009.2
20260508120512 13 158 0.0 1.6 0.00 0.00 0.00 75 1009.2
20260508120053 13 158 0.0 3.2 0.00 0.00 0.00 74 1009.2
20260508115532 13 158 0.0 3.2 0.00 0.00 0.00 75 1009.2
20260508115003 13 158 0.0 4.8 0.00 0.00 0.00 75 1009.1
20260508114543 13 154 1.6 4.8 0.00 0.00 0.00 75 1009.0
20260508114019 13 157 0.0 3.2 0.00 0.00 0.00 75 1009.0
20260508113559 13 161 0.0 3.2 0.00 0.00 0.00 75 1009.1
20260508113038 13 161 0.0 4.8 0.00 0.00 0.00 75 1009.0
20260508112511 13 195 1.6 4.8 0.00 0.00 0.00 75 1008.9
20260508112052 13 165 0.0 3.2 0.00 0.00 0.00 75 1009.1
20260508111535 12 144 0.0 3.2 0.00 0.00 0.00 75 1008.9
20260508111005 12 158 0.0 3.2 0.00 0.00 0.00 75 1008.9
20260508110544 12 152 0.0 3.2 0.00 0.00 0.00 75 1008.8
20260508110024 12 130 0.0 3.2 0.00 0.00 0.00 75 1008.9
20260508105604 12 160 0.0 3.2 0.00 0.00 0.00 75 1008.9
20260508105037 12 148 0.0 3.2 0.00 0.00 0.00 75 1008.9
20260508104512 12 112 0.0 3.2 0.00 0.00 0.00 75 1008.9
20260508104055 12 152 0.0 3.2 0.00 0.00 0.00 75 1008.8
20260508103531 12 158 0.0 4.8 0.00 0.00 0.00 75 1008.7
20260508103008 12 134 0.0 4.8 0.00 0.00 0.00 75 1008.8
20260508102548 12 159 0.0 3.2 0.00 0.00 0.00 75 1008.7
20260508102025 12 159 0.0 3.2 0.00 0.00 0.00 75 1008.8
20260508101501 12 158 0.0 3.2 0.00 0.00 0.00 75 1008.7
20260508101042 12 148 0.0 3.2 0.00 0.00 0.00 75 1008.7
20260508100522 12 155 0.0 4.8 0.00 0.00 0.00 75 1008.7
20260508100112 12 152 0.0 4.8 0.00 0.00 0.00 75 1008.6
20260508095534 12 164 0.0 4.8 0.00 0.00 0.00 75 1008.6
20260508095010 12 158 0.0 3.2 0.00 0.00 0.00 75 1008.7
20260508094602 12 168 0.0 3.2 0.00 0.00 0.00 75 1008.7
20260508094026 12 157 0.0 3.2 0.00 0.00 0.00 75 1008.7
20260508093504 12 160 0.0 3.2 0.00 0.00 0.00 75 1008.7
20260508093044 12 169 0.0 3.2 0.00 0.00 0.00 75 1008.7
20260508092520 12 164 0.0 6.4 0.00 0.00 0.00 75 1008.8
20260508092100 12 152 0.0 6.4 0.00 0.00 0.00 75 1008.7
20260508091540 12 147 1.6 3.2 0.00 0.00 0.00 75 1008.8
20260508091017 12 155 0.0 3.2 0.00 0.00 0.00 75 1008.9
20260508090555 12 150 0.0 3.2 0.00 0.00 0.00 74 1008.9
20260508090045 12 158 0.0 3.2 0.00 0.00 0.00 74 1008.9
20260508085506 12 147 0.0 3.2 0.00 0.00 0.00 74 1008.9
20260508085050 12 163 0.0 3.2 0.00 0.00 0.00 74 1008.8
20260508084522 12 161 0.0 3.2 0.00 0.00 0.00 74 1008.9
20260508084103 12 150 0.0 3.2 0.00 0.00 0.00 74 1008.9
20260508083539 12 151 0.0 3.2 0.00 0.00 0.00 74 1009.1
20260508083014 12 152 0.0 3.2 0.00 0.00 0.00 74 1009.0
20260508082555 12 143 0.0 3.2 0.00 0.00 0.00 74 1009.1
20260508082033 12 158 0.0 3.2 0.00 0.00 0.00 74 1009.2
20260508081508 12 141 1.6 3.2 0.00 0.00 0.00 74 1009.2
20260508081048 12 158 0.0 4.8 0.00 0.00 0.00 73 1009.3
20260508080531 12 165 0.0 4.8 0.00 0.00 0.00 73 1009.4
20260508080001 12 155 0.0 4.8 0.00 0.00 0.00 73 1009.4
20260508075544 12 162 0.0 3.2 0.00 0.00 0.00 73 1009.4
20260508075017 12 160 0.0 3.2 0.00 0.00 0.00 73 1009.6
20260508074558 12 160 0.0 3.2 0.00 0.00 0.00 73 1009.6
20260508074033 12 113 0.0 3.2 0.00 0.00 0.00 73 1009.6
20260508073511 12 151 0.0 4.8 0.00 0.00 0.00 72 1009.7
20260508073106 12 159 1.6 4.8 0.00 0.00 0.00 72 1009.7
20260508072526 13 153 0.0 3.2 0.00 0.00 0.00 72 1009.9
20260508072002 13 140 0.0 3.2 0.00 0.00 0.00 71 1009.9
20260508071544 13 121 0.0 3.2 0.00 0.00 0.00 71 1010.0
20260508071018 13 172 0.0 3.2 0.00 0.00 0.00 71 1010.1
20260508070558 13 138 0.0 3.2 0.00 0.00 0.00 70 1010.2
20260508070032 13 154 0.0 4.8 0.00 0.00 0.00 70 1010.2
20260508065508 13 157 0.0 4.8 0.00 0.00 0.00 70 1010.2
20260508065048 13 165 0.0 4.8 0.00 0.00 0.00 69 1010.3
20260508064524 13 161 0.0 4.8 0.00 0.00 0.00 69 1010.3
20260508064104 13 152 0.0 4.8 0.00 0.00 0.00 69 1010.4
20260508063541 13 167 0.0 4.8 0.00 0.00 0.00 69 1010.4
20260508063016 13 157 0.0 6.4 0.00 0.00 0.00 69 1010.4
20260508062557 13 126 1.6 6.4 0.00 0.00 0.00 69 1010.4
20260508062033 13 110 0.0 4.8 0.00 0.00 0.00 68 1010.5